User: anonymous   Login
Location: Heilwood
(40.6210°N, 78.9150°W)
Time: 02:43:36
(UTC-04:00)
Language:

Iridium 4 Rocket - Orbit

View from above orbital plane
View from above orbital plane
View from above satellite
View from above satellite

Ground track
Ground track

The orbit data is extracted from the following two-line orbital elements,

1 24797U 97020F   17207.93251451 +.00000142 +00000-0 +24785-4 0  9991
2 24797 086.8979 338.8122 0225308 184.2745 322.4920 14.43989205063642
Epoch (UTC): 26 July 2017 22:22:49
Eccentricity: 0.0225308
inclination: 86.8979°
perigee height: 585 km
apogee height: 906 km
right ascension of ascending node: 338.8122°
argument of perigee: 184.2745°
revolutions per day: 14.43989205
mean anomaly at epoch: 322.4920°
orbit number at epoch: 6364

The dashed part of the orbit path shows where the satellite is in the earth's shadow,  

DLR